AirNav   Pilot Hours Calculator
 
 1284 users online  

48MO Lions Emergency Evac Heliport
California, Missouri, USA

GOING TO CALIFORNIA?


FAA INFORMATION EFFECTIVE 07 NOVEMBER 2019

Location

FAA Identifier: 48MO
Lat/Long: 38-37-38.4600N 092-32-25.9400W
38-37.641000N 092-32.432333W
38.6273500,-92.5405389
(estimated)
Elevation: 860 ft. / 262 m (estimated)
Variation: 04E (1985)
From city: 1 mile E of CALIFORNIA, MO
Time zone: UTC -6 (UTC -5 during Daylight Saving Time)
Zip code: 65018

Heliport Operations

Heliport use: Private use, MEDICAL USE.
Activation date: 05/1991
Control tower: no
ARTCC: KANSAS CITY CENTER
FSS: COLUMBIA FLIGHT SERVICE STATION
Attendance: UNATNDD
Wind indicator: lighted
Segmented circle: no
Lights: ACTVT PERIMETER LGTS - 123.05.

Heliport Communications

WX ASOS at JEF (18 nm E): 133.625 (573-635-9266)
WX ASOS at COU (19 nm NE): PHONE 573-499-1400

Nearby radio navigation aids

VOR radial/distance  VOR name  Freq  Var
COUr234/18.7COLUMBIA VOR/DME110.2000E
HLVr207/35.0HALLSVILLE VORTAC114.2006E
SHYr005/35.3SUNSHINE VOR/DME108.4000E

 
NDB name  Hdg/Dist  Freq  Var  ID
SEDALIA096/30.228103EDMO -.. -- ---

Heliport Services

Runway Information

Helipad H1

Dimensions: 30 x 30 ft. / 9 x 9 m
Surface: concrete
Runway edge lights: PERI
Latitude: 38-37.641000N
Longitude: 092-32.432333W
Elevation: 860.0 ft.
Traffic pattern: leftleft

Heliport Ownership and Management from official FAA records

Ownership: Privately-owned
Owner: CALIFORNIA LIONS CLUB
CITY OF CALIFORNIA
CALIFORNIA, MO 65018
Phone (573) 796-3151
ASK FOR BECKY LAWSON
Manager: CITY CLERK
500 S OAK STREET
CALIFORNIA, MO 65018
Phone (573) 796-2500

Additional Remarks

A53-H1 PLINES SOUTH OF HELIPAD MKD WITH DAY GLOW BALLS; POWER POLE 30 FT ENE 100 FT MKD WITH RED LGTS; POWER POLL 30 FT WNE 120 FT MKD WITH RED LGTS.
FOR CD CTC MIZZOU APCH AT 417-868-5620/5619.

Instrument Procedures

There are no published instrument procedures at 48MO.

Some nearby airports with instrument procedures:

H79 - Eldon Model Airpark (16 nm S)
KJEF - Jefferson City Memorial Airport (18 nm E)
KCOU - Columbia Regional Airport (19 nm NE)
KVER - Jesse Viertel Memorial Airport (20 nm N)
KFTT - Elton Hensley Memorial Airport (28 nm NE)
 
Loc | Ops | Rwys | IFR | FBO | Links
Com | Nav | Svcs | Stats | Notes

Kansas City Aviation Department
 
Area around 48MO (Lions Emergency Evac Heliport)
 
Road maps at: MapQuest Bing Google
 
Aerial photo
No photo
 
Sectional chart

 
Airport distance calculator
Flying to Lions Emergency Evac Heliport? Find the distance to fly.

From to 48MO

Sunrise and sunset
Times for 15-Nov-2019
 Local
(UTC-6)
 Zulu
(UTC)
Morning civil twilight06:2512:25
Sunrise06:5312:53
Sunset16:5622:56
Evening civil twilight17:2523:25

Current date and time
Zulu (UTC)  15-Nov-2019 16:40:41
Local (UTC-6)  15-Nov-2019 10:40:41
 
METAR
KJEF 
18nm E 
151553Z 00000KT 7SM CLR M01/M02 A3045 RMK AO2 SLP309 T10061022
KCOU 
19nm NE 
151554Z 00000KT 10SM CLR 04/M03 A3043 RMK AO2 SLP311 T00391033
KDMO 
30nm W 
151553Z AUTO 22004KT 10SM CLR 04/M04 A3044 RMK AO2 SLP315 T00391039
KAIZ 
32nm S 
151556Z AUTO 28003KT 10SM CLR 02/M03 A3045 RMK AO2 UPE02RAB02E05 SLP319 P0000 T00221028 FZRANO
TAF
KCOU 
19nm NE 
151120Z 1512/1612 VRB03KT 5SM BR SKC FM151400 VRB03KT P6SM SKC
NOTAMs
Click for the latest NOTAMs
NOTAMs are issued by the DoD/FAA and will open in a separate window not controlled by AirNav.

 

 
 

Would you like to see your business listed on this page?

 If your business provides an interesting product or service to pilots, flight crews, aircraft, or users of the Lions Emergency Evac Heliport, you should consider listing it here.  To start the listing process, click on the button below
 
Add a business
 

Other Pages about Lions Emergency Evac Heliport

Update a link
 
Copyright © AirNav, LLC. All rights reserved. Privacy Policy  Contact